Dewpoint
44 42 42 43 43 42 43 44 46 46 45 44 45 45 44 44 43 43 43 42 40 39
44 43 43 44 44 42 44 43 45 45 43 43 43 43 43 42 42 42 41 41 40 38
42 43 43 44 43 43 44 44 44 43 42 42 42 42 41 40 41 41 40 39 39 37
41 43 43 42 43 43 44 43 41 40 40 39 40 40 40 40 39 39 39 39 38 37
41 41 42 42 43 44 42 42 40 39 38 38 38 39 39 38 38 38 38 38 37 37
41 40 41 42 42 42 41 41 40 39 38 37 38 37 38 38 38 37 38 37 37 36
39 40 40 41 41 41 40 39 39 38 37 36 34 33 36 37 37 37 37 38 37 36
40 40 40 40 40 40 40 38 38 37 35 32 29 28 32 35 37 35 36 37 35 36
38 38 39 40 40 40 39 38 38 37 35 30 25 32 32 32 34 36 34 34 35 34
37 37 38 38 38 38 39 39 38 38 36 32 29 32 32 32 32 35 34 34 34 29
36 36 37 37 37 39 39 38 38 38 36 32 28 31 31 32 33 34 33 33 33 31
35 35 36 36 37 38 37 37 37 36 37 34 30 30 30 31 33 31 32 33 33 31
35 35 35 36 37 37 37 35 32 33 36 35 30 29 29 29 31 30 31 33 30 30
34 34 35 37 36 36 35 33 33 33 33 35 33 29 29 29 27 29 32 32 32 32
Lifted_Index
14 14 14 15 15 15 15 15 15 15 15 16 15 15 16 16 16 16 17 17 17 17
14 14 15 15 15 15 15 15 15 15 15 16 16 16 16 16 16 17 17 17 18 18
14 14 15 15 15 15 15 15 15 15 16 16 16 16 16 17 17 17 17 17 18 18
14 14 15 15 15 15 15 15 15 16 16 16 17 17 17 17 17 17 17 17 17 18
14 14 14 15 15 15 15 15 16 16 16 17 17 17 17 17 17 17 17 17 17 17
14 14 14 14 14 15 15 15 16 16 17 17 18 18 17 17 17 17 17 17 17 17
14 14 14 14 14 15 15 15 16 16 17 18 19 19 18 17 17 17 17 17 17 17
14 14 14 14 14 15 15 15 16 16 18 18 19 19 18 18 17 17 17 17 17 17
14 14 14 14 14 15 15 15 16 16 18 18 19 19 19 18 17 17 17 17 17 18
14 14 14 14 14 15 15 15 16 16 17 18 19 19 19 18 17 17 17 17 18 18
14 14 14 14 14 15 15 16 16 16 17 18 19 19 19 18 17 17 17 17 18 18
13 14 14 14 14 15 15 16 16 17 17 18 19 19 19 18 18 17 17 18 18 18
13 14 14 14 14 15 15 16 16 17 17 18 18 19 19 19 18 18 18 18 18 18
13 14 14 14 14 15 15 16 17 17 18 18 18 19 19 19 19 19 18 18 18 18